Mt. Clemens, MI

7:15 AM EDT on August 18, 2017 (GMT -0400)
Selfridge Angb

Weather History for KMTC - August, 2013

Change the Weather History Date:

Friday, August 2, 2013

  Actual Average Record
Temperature  
Mean Temperature 68 °F -  
Max Temperature 77 °F 81 °F 96 °F (2006)
Min Temperature 59 °F 62 °F 51 °F (1951)
Cooling Degree Days 3    
Growing Degree Days 18 (Base 50)    
Moisture  
Dew Point 59 °F    
Average Humidity 72    
Maximum Humidity 86    
Minimum Humidity 51    
Precipitation  
Precipitation 0.00 in - - ()
Sea Level Pressure  
Sea Level Pressure 29.89 in    
Wind  
Wind Speed 9 mph (WSW)    
Max Wind Speed 20 mph    
Max Gust Speed 25 mph    
Visibility 11 miles    
Events      
Averages and records for this station are not official NWS values.
T = Trace of Precipitation, MM = Missing Value Source: NWS Daily Summary

Daily Weather History Graph

Daily Weather History Graph

Search for Another Location

Airport or City:

Trip Planner

Search our weather history database for the weather conditions in past years. The results will help you decide how hot, cold, wet, or windy it might be!

Date:

Astronomy

Aug. 02, 2013 Rise Set
Actual Time 6:24 AM EDT 8:49 PM EDT
Civil Twilight 5:52 AM EDT 9:21 PM EDT
Nautical Twilight 5:13 AM EDT 10:01 PM EDT
Astronomical Twilight 4:28 AM EDT 10:45 PM EDT
Moon 2:43 AM EDT (8/2) 5:47 PM EDT (8/2)
Length of Visible Light 15h 29m
Length of Day
14h 25m
Waning Crescent, 16% of the Moon is Illuminated
Aug 2
Waning Crescent
Aug 6
New
Aug 14
First Quarter
Aug 20
Full
Aug 28
Last Quarter

Hourly Weather History & Observations

Time (EDT) Temp. Dew Point Humidity Pressure Visibility Wind Dir Wind Speed Gust Speed Precip Events Conditions
12:58 AM 64.8 °F 56.3 °F 74% 29.91 in 10.0 mi West 6.9 mph - N/A   Clear
1:58 AM 63.5 °F 54.9 °F 73% 29.89 in 10.0 mi West 6.9 mph - N/A   Clear
2:58 AM 62.1 °F 54.3 °F 76% 29.88 in 10.0 mi West 5.8 mph - N/A   Clear
3:58 AM 60.4 °F 54.3 °F 80% 29.88 in 10.0 mi West 4.6 mph - N/A   Clear
4:58 AM 59.9 °F 54.5 °F 82% 29.90 in 10.0 mi West 6.9 mph - N/A   Clear
5:58 AM 59.2 °F 54.1 °F 83% 29.92 in 10.0 mi West 5.8 mph - N/A   Clear
6:58 AM 59.2 °F 54.7 °F 85% 29.93 in 10.0 mi West 4.6 mph - N/A   Clear
7:55 AM 62.8 °F 55.8 °F 78% 29.92 in 12.0 mi WSW 8.1 mph - N/A   Scattered Clouds
8:55 AM 67.1 °F 56.5 °F 69% 29.93 in 12.0 mi West 6.9 mph - N/A   Mostly Cloudy
9:55 AM 69.3 °F 57.0 °F 65% 29.91 in 12.0 mi SSW 6.9 mph - N/A   Overcast
10:55 AM 73.9 °F 57.6 °F 56% 29.93 in 12.0 mi SW 10.4 mph - N/A   Mostly Cloudy
11:55 AM 75.9 °F 57.7 °F 53% 29.91 in 12.0 mi SSW 9.2 mph - N/A   Mostly Cloudy
12:55 PM 75.9 °F 58.3 °F 54% 29.91 in 12.0 mi SW 15.0 mph 19.6 mph N/A   Partly Cloudy
1:55 PM 77.2 °F 57.9 °F 51% 29.89 in 12.0 mi SSW 13.8 mph 23.0 mph N/A   Partly Cloudy
2:55 PM 75.6 °F 58.6 °F 56% 29.88 in 12.0 mi SW 13.8 mph 20.7 mph N/A   Mostly Cloudy
3:55 PM 73.6 °F 60.8 °F 64% 29.87 in 12.0 mi WSW 18.4 mph 25.3 mph N/A   Overcast
4:55 PM 71.6 °F 60.8 °F 69% 29.87 in 12.0 mi SW 19.6 mph 25.3 mph N/A   Overcast
5:11 PM 71.6 °F 60.8 °F 69% 29.84 in 12.0 mi SW 16.1 mph 23.0 mph N/A   Overcast
5:55 PM 70.0 °F 60.8 °F 73% 29.86 in 12.0 mi WSW 13.8 mph - N/A   Overcast
6:55 PM 70.2 °F 61.7 °F 74% 29.87 in 12.0 mi WSW 9.2 mph - N/A   Overcast
7:31 PM 69.8 °F 62.6 °F 78% 29.85 in 12.0 mi West 9.2 mph - N/A   Overcast
7:55 PM 70.2 °F 62.2 °F 76% 29.88 in 12.0 mi West 8.1 mph - N/A   Overcast
8:58 PM 69.3 °F 62.6 °F 79% 29.86 in 10.0 mi WSW 8.1 mph - N/A   Scattered Clouds
9:58 PM 68.7 °F 63.0 °F 82% 29.88 in 10.0 mi WSW 8.1 mph - N/A   Partly Cloudy
10:58 PM 68.5 °F 63.3 °F 83% 29.88 in 10.0 mi West 6.9 mph - N/A   Partly Cloudy
11:58 PM 68.2 °F 63.9 °F 86% 29.88 in 10.0 mi West 6.9 mph - N/A   Scattered Clouds